STARLINK-1342, 45558

Orbit data source: Space-Track

STARLINK-1342, 45558 is a payload satellite owned by SpaceX/Seattle (US) in LEO that was launched on Wed, 22 Apr 2020 UTC via an FALCON 9 launch vehicle from the Air Force Eastern Test Range (AFETR). Payload-class satellites include a variety of spacecraft equipped with specific instruments for various scientific and technological missions. These include communications satellites like Starlink; space stations such as the ISS; scientific satellites like the Hubble; Earth observation satellites from companies like Planet Labs, Umbra, and HawkEye 360; GPS; miniature CubeSats for education and research; and military/defense satellites.

Loading next visibility...
Identifier
45558, 2020-025AD
Orbit
LEO
Last TLE update
9 hours ago
Origin
Manufacturer
SpaceX/Seattle
Mission
Partially operational Commercial Communications
Bus & Motor
STARLINK, Unknown motor
Mass
260 kg wet, ~248 kg dry
Launch date (UTC)
2020-04-22 (5 years ago)
Launch vehicle
FALCON 9
Launch site
Air Force Eastern Test Range (AFETR)
Object type
Payload
Rocket body
Debris
Shape & HBR
Box + 1 Pan, 8.86 m
Radar Cross Section
13.562 m², Large (>1 m²)

Expand to show TLE details & history

TLE from 9 hours ago
0 STARLINK-1342
1 45558U 20025AD  25186.58335648  .00129338  00000-0  13361-2 0  9992
2 45558  53.0532 107.6033 0002768 149.1030 346.0138 15.63870770287633
Epoch: 2025-07-05T14:00Z
TLE epoch observation values (Epoch: 2025-07-05T14:00:01.999Z)
Latitude
34.44834°
Longitude
122.91073°
Altitude
377.136 km
Speed
7.689 km/s
True Right ascension
17h 06m 57s
True Declination
34° 16' 45"
Sunlit
Object was in full shadow at epoch
Visualization orbit readout
Latitude
5.7707°
Longitude
-23.65767°
Altitude
378.047 km
Speed
7.684 km/s
Apparent Right ascension
04h 14m 35s
Apparent Declination
-33° 46' 47"
Sunlit
Object is in daylight
Visualization observer readout
Local Sidereal Time
10:35:43
Azimuth
245.491° WSW
Elevation
-24.549°
Doppler factor
1
Orbital elements
Apogee altitude
378.636 km
Perigee altitude
374.896 km
Semi-major axis
6,754.903 km
Eccentricity
0.00028
Inclination
53.0532°
RAAN
107.6033°
Arg. of periapsis
149.103°
True anomaly
Unknown
Mean anomaly
346.0138°
Eccentric anomaly
Unknown
Mean motion
3.90944 °/min
Orbital period
92.08 mins
BSTAR
0.0013361
Loading maneuver chart data...
Loading SW <> Apogee altitude chart data...
Loading historical data...
Loading historical data...
Loading historical data...
Loading historical data...
Loading historical data...
Loading historical data...
Loading historical data...

STARLINK-1342 Visibility forecast

Observer location: undefined°, undefined°

Span
Click to sort rows by Start time (UTC) header in descending order
Start Az.
Max El. time (UTC)
Max El. Az.
Max El.
End time (UTC)
End Az.
4 mins2025-07-05 22:52:29.940Z291.168° WNW2025-07-05 22:54:29.940Z341.08° N18.838°2025-07-05 22:56:29.940Z22.548° NE
4 mins2025-07-06 21:51:29.940Z273.263° WNW2025-07-06 21:52:29.940Z311.071° NW32.051°2025-07-06 21:55:29.940Z36.387° NE
|